Location: Karlovy Vary
(50.2170°N, 12.9000°E)
Time: 09:03:06
(UTC+01:00)

ISS - Visible Passes

Search period start: 28 November 2020 00:00
Search period end: 08 December 2020 00:00
Orbit: 418 x 420 km, 51.6° (Epoch: 28 November)

Date Brightness Start Highest point End Pass type
(mag) Time Alt. Az. Time Alt. Az. Time Alt. Az.
28 Nov -3.8 18:13:29 10° W 18:16:50 67° N 18:16:57 66° N visible
29 Nov -3.7 17:25:54 10° W 17:29:17 73° N 17:31:17 22° ENE visible
29 Nov -1.3 19:02:52 10° WNW 19:04:15 23° WNW 19:04:15 23° WNW visible
30 Nov -3.8 18:15:18 10° WNW 18:18:36 70° N 18:18:36 70° N visible
01 Dec -3.7 17:27:43 10° W 17:31:04 66° N 17:32:59 23° E visible
01 Dec -1.3 19:04:36 10° WNW 19:05:57 22° W 19:05:57 22° W visible
02 Dec -3.8 18:17:01 10° WNW 18:20:22 86° SW 18:20:22 86° SW visible
03 Dec -3.8 17:29:26 10° WNW 17:32:49 79° N 17:34:51 22° E visible
03 Dec -1.2 19:06:22 10° W 19:07:49 21° W 19:07:49 21° W visible
04 Dec -3.7 16:41:50 10° WNW 16:45:12 70° N 16:48:34 10° E visible
04 Dec -3.1 18:18:42 10° WNW 18:21:59 49° SSW 18:22:24 46° S visible
05 Dec -3.5 17:31:05 10° WNW 17:34:26 68° SSW 17:37:06 15° ESE visible
05 Dec -0.9 19:08:30 10° W 19:10:05 16° SW 19:10:05 16° SW visible
06 Dec -3.7 16:43:28 10° WNW 16:46:51 86° SSW 16:50:13 10° ESE visible
06 Dec -1.6 18:20:33 10° W 18:23:22 25° SW 18:24:58 17° S visible
07 Dec -2.2 17:32:46 10° W 17:35:53 35° SSW 17:38:59 10° SE visible
